Location: Bettencourt
(50.0259°N, 2.1132°E)
Time: 10:40:24
(UTC+00:00)

Daily predictions for brighter satellites

Satellite Brightness Start Highest point End
(mag) Time Altitude Azimuth Time Altitude Azimuth Time Altitude Azimuth
Tsikada Rocket 4.0 20:18:06 10° S 20:24:18 83° E 20:30:38 10° N
Cosmos 1943 3.4 20:21:23 10° S 20:26:49 50° ESE 20:32:18 10° NE
Okean 3 Rocket 3.7 20:23:32 10° N 20:27:55 64° ENE 20:32:14 10° SSE
IRS-1C Rocket 4.2 20:22:44 10° SSE 20:28:00 76° ENE 20:33:16 10° NNW
Cosmos 1842 Rocket 3.9 20:24:21 10° SSE 20:28:37 48° E 20:32:52 10° NNE
Spot 2 Rocket 4.0 20:25:48 10° SE 20:30:35 46° ENE 20:35:24 10° N
ISS -2.9 20:27:26 10° W 20:30:37 39° SSW 20:33:46 10° SE
Resurs 01 Rocket 3.4 20:27:15 10° SSW 20:31:10 30° W 20:35:07 10° NNW
IRS-1A Rocket 4.3 20:26:08 10° SSE 20:31:44 77° ENE 20:37:17 10° NNW
ARGOS Delta rocket 4.1 20:28:16 10° SSE 20:33:10 60° ENE 20:37:49 10° N
NOSS 2-1 (D) 4.5 20:32:07 10° NNW 20:35:28 35° NE 20:39:45 10° ESE
Cosmos 1340 4.0 20:36:34 10° NNE 20:39:16 21° ENE 20:41:56 10° ESE
Sich 1 4.0 20:37:00 10° N 20:40:59 34° ENE 20:44:54 10° SE
Okean O Rocket 3.5 20:37:34 10° SSW 20:41:25 28° W 20:45:16 10° NW
SPOT 3 Rocket 3.9 20:36:28 10° SE 20:41:25 51° ENE 20:46:24 10° N
CZ-4 R/B 4.5 20:41:38 10° W 20:42:12 10° W 20:42:47 10° WNW
USA 307 -1.1 20:42:32 10° WNW 20:43:23 61° SSW 20:43:28 54° SSE
Cosmos 2221 3.4 20:40:55 10° SSW 20:45:08 52° WNW 20:49:23 10° N
Cosmos 2292 Rocket 4.5 20:40:14 10° SSW 20:46:27 69° W 20:51:10 10° N
Meteor 1-27 Rocket 4.4 20:41:36 10° SSE 20:46:33 36° E 20:51:34 10° NNE
USA 281 3.7 20:43:43 10° SE 20:50:04 53° NE 20:56:27 10° NNW
Ariane Rocket 3.1 20:48:27 10° SSE 20:53:28 69° ENE 20:58:33 10° N
Terra 1.8 20:59:41 10° SSE 21:04:24 85° WSW 21:09:09 10° NNW
Cosmos 1452 Rocket 3.9 21:01:08 10° NNW 21:06:19 61° WSW 21:11:26 10° S
Cosmos 1340 Rocket 3.5 21:03:13 13° SSE 21:06:23 36° E 21:10:03 10° NNE
MOS 1 Rocket 3.6 21:02:03 12° SSE 21:06:54 74° ENE 21:12:16 10° N
Cosmos 1743 Rocket 3.8 21:03:00 10° N 21:07:20 55° ENE 21:10:56 15° SSE
USA 234 4.2 21:05:18 10° ENE 21:11:34 50° N 21:17:49 10° WNW
NOSS 2-1 (C) 3.7 21:08:24 10° NW 21:12:03 63° NE 21:16:10 14° SE
Cosmos 468 4.5 21:06:52 10° SSW 21:12:04 83° ESE 21:17:20 10° NNE
Lacrosse 5 rocket 3.3 21:08:32 10° WNW 21:12:24 32° N 21:16:12 10° ENE
ARIANE 5 R/B 4.3 21:12:44 10° ESE 21:15:55 21° ENE 21:19:10 10° NNE
Cosmos 1408 Rocket 3.8 21:12:39 10° NNW 21:17:07 72° W 21:21:17 11° S
ERS-1 Rocket 3.5 21:12:48 10° S 21:17:45 58° W 21:22:43 10° NNW
Meteor 2-10 4.1 21:14:02 10° NNW 21:19:37 86° E 21:24:13 14° SSE
Cosmos 2279 Rocket 4.5 21:18:08 10° NNW 21:24:13 60° W 21:30:16 10° S
USA 245 3.9 21:22:29 11° SSW 21:24:14 25° W 21:26:19 10° NW
Spot 1 4.1 21:20:39 10° NNE 21:24:40 53° ESE 21:28:04 15° S
SL-8 R/B 3.6 21:20:07 10° WSW 21:24:51 71° S 21:29:36 10° E
Cosmos 1626 3.7 21:24:36 14° ESE 21:25:26 15° E 21:27:24 10° NE
Nadezhda 4 Rocket 4.0 21:21:16 11° S 21:27:14 66° E 21:33:27 10° NNE
Cosmos 614 Rocket 4.5 21:25:40 14° S 21:29:40 41° ESE 21:34:33 10° NE
SPOT 5 4.5 21:28:39 10° SSW 21:32:25 26° W 21:36:06 10° NW
Meteor 1-19 Rocket 4.3 21:29:05 10° S 21:34:58 82° E 21:40:42 10° NNE
Cosmos 1603 3.8 21:31:03 10° SSW 21:36:43 81° WNW 21:42:30 10° NNE
Cosmos 1833 Rocket 4.3 21:35:25 15° ESE 21:37:16 17° E 21:40:45 10° ENE
Okean 1 3.6 21:34:15 10° SSW 21:38:04 64° WNW 21:41:57 10° N
Cosmos 2369 Rocket 4.3 21:34:36 10° WNW 21:38:18 18° W 21:42:00 10° SW
Cosmos 1151 Rocket 3.0 21:37:10 17° S 21:40:24 66° E 21:44:43 10° NNE
Cosmos 1975 3.1 21:37:06 10° N 21:40:58 51° ENE 21:43:09 23° SE
Meteor 1-11 Rocket 4.4 21:36:39 10° NNW 21:42:08 51° W 21:47:34 11° SSW
Cosmos 1328 Rocket 4.4 21:45:12 22° SE 21:47:16 34° E 21:51:10 10° NNE
Meteor 2-17 Rocket 4.4 21:41:44 11° S 21:47:37 88° E 21:53:42 10° N
Cosmos 1302 Rocket 4.3 21:43:55 10° NNW 21:49:03 62° WSW 21:52:42 19° S
Cosmos 1536 4.4 21:46:13 10° NNW 21:49:36 29° W 21:53:00 10° SSW
Cosmos 1992 Rocket 4.0 21:44:30 10° NNW 21:49:46 74° ENE 21:53:10 22° SSE
Cosmos 1726 4.4 21:49:04 10° NW 21:50:56 15° W 21:52:47 10° SW
Cosmos 1500 Rocket 4.5 21:47:50 10° NNW 21:51:54 42° W 21:55:23 13° SSW
USA 306 4.3 21:50:32 10° W 21:53:29 21° SW 21:54:47 18° SSW
Cosmos 1656 3.7 21:48:58 10° NNW 21:54:26 73° ENE 21:58:06 22° SE
Cosmos 1766 4.2 21:54:14 10° N 21:57:41 33° ENE 21:59:18 23° ESE
Cosmos 1805 3.1 21:55:53 10° NNW 21:59:36 76° W 22:01:33 26° S
Lacrosse 4 Rocket 1.3 21:56:08 10° NNW 22:00:15 81° ENE 22:02:26 27° SE
Cosmos 1733 4.2 21:57:43 10° NNW 22:00:57 35° W 22:03:12 17° SSW
Cosmos 1470 Rocket 4.3 21:57:42 10° N 22:01:57 41° ENE 22:04:11 23° SE
H-2A R/B 3.5 22:02:16 21° ESE 22:04:30 36° ENE 22:08:25 10° N
IRIDIUM 104 4.3 22:00:47 10° N 22:06:03 85° E 22:09:22 23° S
Cosmos 2026 Rocket 4.0 22:02:10 19° S 22:06:44 70° E 22:12:56 10° NNE
Cosmos 1470 4.4 22:04:51 10° NNE 22:07:49 22° ENE 22:09:19 17° ESE
Cosmos 1633 Rocket 3.1 22:04:46 10° N 22:09:12 73° E 22:11:28 28° SSE
USA 59 Rocket 0.5 22:06:39 10° NW 22:10:29 52° SW 22:13:06 26° SSE
Landsat 5 3.9 22:07:34 10° N 22:11:16 52° WNW 22:14:26 14° SW
Cosmos 1666 Rocket 3.4 22:06:58 10° N 22:11:19 89° WSW 22:13:32 28° S
NOSS 3-3 (A) 4.0 22:08:04 18° S 22:11:55 49° ESE 22:17:58 10° NE
NOSS 2-1 (E) 4.1 22:08:43 10° NW 22:12:34 50° SW 22:15:08 26° S
Orbus 7S? 4.3 22:13:47 27° SE 22:13:47 27° SE 22:16:18 10° E
Cosmos 1340 4.0 22:10:35 10° NW 22:13:30 27° W 22:15:25 17° SW
IRIDIUM 114 4.3 22:09:57 10° N 22:15:11 82° W 22:18:30 23° S
Cosmos 220 Rocket 4.0 22:18:09 18° SSW 22:21:18 84° WNW 22:25:38 10° NNE
CZ-2C R/B 3.7 22:16:59 10° NNE 22:21:28 64° ESE 22:23:38 29° S
Cosmos 44 Rocket 3.8 22:17:05 10° NW 22:21:59 55° NE 22:25:16 19° ESE
NOSS 2-1 (D) 4.5 22:21:30 10° WNW 22:25:12 38° SW 22:27:17 25° S
Cosmos 1818 3.6 22:21:17 16° SSW 22:25:38 64° SE 22:31:05 10° NE
NOSS 3-4 (A) 4.3 22:20:32 10° NW 22:27:04 58° NE 22:34:26 11° ESE
Cosmos 1933 Rocket 4.4 22:22:58 10° N 22:27:05 39° ENE 22:29:00 25° ESE
NOSS 3-4 (C) 4.3 22:20:38 10° NW 22:27:10 58° NE 22:34:35 11° ESE
ALOS 2 3.7 22:26:21 21° ESE 22:28:34 35° ENE 22:32:35 10° N
BREEZE-M DEB (TANK) 4.3 22:31:06 25° ESE 22:31:06 25° ESE 22:34:58 10° ENE
Cosmos 1697 Rocket 3.0 22:26:23 10° NNW 22:31:59 62° ENE 22:35:28 23° SE
USA 281 4.1 22:30:22 18° SSW 22:34:44 40° WSW 22:40:54 10° NW
Cosmos 1553 Rocket 3.9 22:30:22 10° N 22:36:28 77° E 22:39:57 27° SSE
GEOS 3 Rocket 3.7 22:31:38 10° NE 22:36:50 76° NW 22:41:56 10° SW
Meteor 2-4 Rocket 4.1 22:33:18 17° SSW 22:37:55 70° WNW 22:43:53 10° N
Cosmos 1674 3.0 22:37:26 38° ESE 22:38:02 42° E 22:41:22 10° NNE
Cosmos 1980 Rocket 3.2 22:34:50 10° NNW 22:40:13 40° NE 22:44:37 15° ESE
NOSS 3-3 (C) 3.7 22:38:08 16° SSW 22:42:32 71° SE 22:48:58 10° NE
Terra 4.3 22:40:58 10° WSW 22:42:44 12° W 22:44:31 10° WNW
MINOTAUR 4 R/B 3.7 22:40:59 10° N 22:43:57 69° WNW 22:44:36 48° SW
Cosmos 1066 Rocket 4.3 22:41:55 26° S 22:45:22 82° E 22:51:17 10° NNE
Cosmos 407 Rocket 4.4 22:49:43 27° SE 22:51:23 33° ESE 22:56:01 10° NE
Lacrosse 5 rocket 2.8 22:47:33 10° NW 22:51:31 38° NNE 22:55:22 10° E
ARIANE 5 R/B 3.0 22:50:12 30° SSW 22:52:00 51° W 22:56:14 10° NNW
Cosmos 1908 3.7 22:50:00 10° N 22:53:26 44° ENE 22:54:20 35° ESE
USA 234 3.9 22:47:40 10° E 22:54:02 56° NNE 23:00:25 10° WNW
Cosmos 1269 Rocket 4.1 22:54:32 20° SSW 22:58:11 75° WNW 23:03:30 10° NNE
Cosmos 1626 3.1 22:57:25 24° WSW 22:58:41 34° WNW 23:01:41 10° N
Cosmos 2251 Rocket 4.3 23:01:47 29° SE 23:03:29 37° ESE 23:08:18 10° NE
PSLV R/B 4.3 23:01:41 10° N 23:05:41 58° WNW 23:07:35 28° SW
SL-8 R/B 3.6 23:02:26 10° W 23:07:09 65° SSW 23:10:29 19° ESE
Cosmos 1707 2.5 23:09:21 52° SSE 23:10:04 70° E 23:13:43 10° NNE
BREEZE-M DEB (TANK) 2.9 23:08:31 10° W 23:14:08 13° ESE 23:15:00 10° ESE
Cosmos 1441 Rocket 3.4 23:10:10 10° N 23:13:41 52° ENE 23:14:30 41° ESE
SL-16 R/B 4.2 23:09:40 10° NNW 23:14:14 24° NE 23:18:46 10° E
Cosmos 2266 Rocket 4.1 23:12:28 30° SSE 23:15:34 67° E 23:21:49 10° NNE
Spot 4 4.0 23:13:59 35° S 23:15:52 64° WSW 23:20:38 10° NNW
Cosmos 1842 3.1 23:15:46 46° SSW 23:16:44 73° W 23:20:26 10° N
Cosmos 1655 Rocket 4.4 23:15:56 28° SSE 23:19:05 52° E 23:25:16 10° NNE
Cosmos 1833 Rocket 2.6 23:17:03 25° SSW 23:20:24 88° WNW 23:26:04 10° NNE
Cosmos 2082 Rocket 3.1 23:23:06 28° SE 23:24:58 35° ESE 23:30:06 10° NE
Cosmos 1300 3.7 23:26:35 10° N 23:29:54 34° ENE 23:30:52 29° ESE
Cosmos 1515 Rocket 4.2 23:28:42 28° SW 23:30:39 47° WNW 23:34:51 10° N
KORONAS-FOTON 4.1 23:30:14 39° SW 23:31:15 54° WNW 23:34:54 10° N
Meteor 1-22 Rocket 4.1 23:26:04 10° N 23:31:24 78° ENE 23:33:54 33° SSE
Cosmos 2228 Rocket 4.0 23:31:44 30° SE 23:33:07 38° E 23:37:18 10° NNE
Meteor 1-15 Rocket 4.2 23:29:57 10° NNW 23:35:39 85° ENE 23:38:16 33° SSE
SL-08 ROCKET BODY 4.4 23:33:08 31° S 23:36:18 84° E 23:42:30 10° N
H-2A R/B 2.5 23:32:48 10° NNE 23:37:07 50° E 23:38:23 38° SSE
Lacrosse 4 Rocket 3.5 23:35:57 10° WNW 23:37:57 13° WSW 23:38:21 13° WSW
Cosmos 1733 Rocket 3.7 23:34:03 10° N 23:38:14 46° ENE 23:39:58 30° SE
H-2A R/B 3.9 23:38:15 23° WSW 23:39:31 27° W 23:43:09 10° NW
Cosmos 1869 Rocket 3.6 23:36:49 10° NNW 23:41:09 67° W 23:42:30 42° SSW
Cosmos 1470 3.7 23:39:55 10° NNW 23:43:14 32° W 23:43:59 29° WSW
Cosmos 1400 Rocket 2.9 23:54:09 46° SSE 23:55:05 63° E 23:59:02 10° NNE
GP-B 3.0 23:50:55 10° N 23:55:22 87° E 23:56:49 42° S
